{"data":{"norad_id":64348,"intl_designator":"2025-126E","name":"STARLINK-34274","alt_names":[],"object_type":"PAYLOAD","status":"ACTIVE","operator":null,"country":"US","launch_date":"2025-06-13","launch_site_code":"AFWTR","launch_vehicle":null,"mission":null,"orbit_class":"UNKNOWN","rcs_meters":null,"size_class":null,"mass_kg":null,"dimensions":null,"purposes":["comms"],"wikipedia_slug":null,"has_3d_model":false,"image_url":null,"decayed_at":null,"tle_current":{"epoch":"2026-05-25T02:31:31.410624Z","epoch_age_seconds":76034,"freshness":"FRESH","line1":"1 64348U 25126E   26145.10522466  .00002899  00000+0  25062-3 0  9990","line2":"2 64348  70.0004 201.9699 0003787 267.5611  92.5114 14.98336641 52124","mean_motion":14.98336641,"eccentricity":0.0003787,"inclination_deg":70.0004,"raan_deg":201.9699,"arg_perigee_deg":267.5611,"mean_anomaly_deg":92.5114,"bstar":0.00025062,"rev_number":5212,"period_min":96.106573155612,"perigee_km":569.40332400502,"apogee_km":574.66738454615,"semimajor_km":6950.1723542756,"source":"CELESTRAK","updated_at":"2026-05-25T13:38:20.400848Z"}}}